Regional Weather Roundup
Issued by NWS

Home | Current Version | Previous Version | Graphics & Text | Print | Product List | Glossary Off
Versions: 1 2 3 4 5 6 7 8 9 10 11 12 13 14 15 16 17 18 19 20 21 22 23 24 25 26 27

000
ASUS43 KDMX 171907
RWRIA

WEATHER ROUNDUP FOR IOWA
NATIONAL WEATHER SERVICE DES MOINES IA
200 PM CDT THU APR 17 2014

NOTE: "FAIR" INDICATES FEW OR NO CLOUDS BELOW 12,000 FEET WITH NO
SIGNIFICANT WEATHER AND/OR OBSTRUCTIONS TO VISIBILITY.

* - THESE STATIONS ARE NOT NWS STATIONS...THUS NOT UNDER NWS
QUALITY CONTROL.  THEY ALSO DO NOT REPORT WEATHER SUCH
AS PRECIPITATION OR FOG.

IAZ001>003-012>014-020>022-031>034-043>046-172000-
   NORTHWEST IOWA

CITY           SKY/WX    TMP DP  RH WIND       PRES   REMARKS
CARROLL *      SUNNY     46  27  46 VRB6G16   30.28F
CHEROKEE *     SUNNY     46  28  49 NE8       30.30S
DENISON *      SUNNY     46  27  46 VRB6      30.28F
LE MARS *      SUNNY     45  25  45 VRB7G14   30.31F
ORANGE CITY *  SUNNY     45  25  45 N8        30.30S
SHELDON *      MOSUNNY   41  27  56 NW6       30.29F
SIOUX CITY     SUNNY     48  25  40 N9        30.31F
SPENCER        MOSUNNY   41  29  62 NW7       30.30S
STORM LAKE *   SUNNY     43  27  52 N9        30.29S
$$

IAZ055>058-069>071-079>083-090>094-172000-
   SOUTHWEST IOWA

CITY           SKY/WX    TMP DP  RH WIND       PRES   REMARKS
ATLANTIC *     SUNNY     48  28  46 N8G15     30.27F
AUDUBON *      SUNNY     50  23  34 NW8       30.28F
CLARINDA *     SUNNY     48  30  49 N9        30.30S
COUNCIL BLFS * SUNNY     48  28  46 N8G15     30.28F
CRESTON *      SUNNY     46  30  53 N10       30.27S
HARLAN  *      SUNNY     46  27  46 VRB7G16   30.31F
LAMONI         MOSUNNY   48  31  51 N9        30.27S
RED OAK *      SUNNY     48  30  49 NE8G14    30.29F
SHENANDOAH *   SUNNY     48  28  46 N8G18     30.30F
$$

IAZ047>049-059>061-072>074-084-172000-
   CENTRAL IOWA

CITY           SKY/WX    TMP DP  RH WIND       PRES   REMARKS
AMES           SUNNY     47  30  51 N9G18     30.28F
ANKENY *       SUNNY     46  32  57 NW7G14    30.28F
CHARITON *     SUNNY     46  32  57 N9        30.27S
DES MOINES     PTSUNNY   47  29  49 NW12      30.28F
GRINNELL*      MOSUNNY   43  32  65 NW8G16    30.28S
KNOXVILLE *    SUNNY     45  30  57 N12       30.27F
MARSHALLTOWN   PTSUNNY   41  31  67 NW12      30.27F
NEWTON *       SUNNY     45  32  61 W10G16    30.29S
PELLA *        SUNNY     46  32  57 NW13      30.29F
PERRY *          N/A     48  27  43 N10       30.28F
$$

IAZ004>006-015-016-023>025-035-036-172000-
   NORTH CENTRAL IOWA

CITY           SKY/WX    TMP DP  RH WIND       PRES   REMARKS
ALGONA *       MOSUNNY   37  30  75 N10       30.29F WCI  30
CLARION *      MOSUNNY   41  30  65 NW14      30.28F
ESTHERVILLE    PTSUNNY   39  30  70 N9        30.28S WCI  33
FORT DODGE *   SUNNY     45  28  53 N12       30.29S
MASON CITY     CLOUDY    35  28  75 NW10      30.30S WCI  27
FOREST CITY *  CLOUDY    36  30  80 NW9       30.28S WCI  29
IOWA FALLS *   PTSUNNY   41  32  70 NW13      30.28F
$$

IAZ007>011-017>019-026>030-037>042-050>054-066-172000-
   NORTHEAST IOWA

CITY           SKY/WX    TMP DP  RH WIND       PRES   REMARKS
CEDAR RAPIDS   CLOUDY    46  33  60 NW12G22   30.25R
CHARLES CITY * CLOUDY    37  30  75 NW14      30.28R WCI  29
CLINTON *      MOSUNNY   54  36  50 NW12      30.25S
DECORAH *      CLOUDY    39  32  75 NW8       30.24R WCI  34
DUBUQUE        MOSUNNY   50  37  61 W12G20    30.21R
MONTICELLO *   PTSUNNY   50  36  57 W12       30.23R
OELWEIN *      CLOUDY   N/A N/A N/A N9G17     30.25S
WATERLOO       CLOUDY    44  31  60 NW12      30.26S
$$

IAZ064-065-067-068-078-172000-
   EAST CENTRAL IOWA

CITY           SKY/WX    TMP DP  RH WIND       PRES   REMARKS
DAVENPORT      MOSUNNY   51  35  54 NW13      30.24S
IOWA CITY      PTSUNNY   48  35  60 NW8       30.27F
MT. PLEASANT * MOSUNNY   50  34  53 W3        30.26F
MUSCATINE *    MOSUNNY   50  36  57 VRB7G15   30.26S
QUAD CITIES    MOSUNNY   52  35  52 W9        30.24S
$$

IAZ062-063-075>077-085>089-095>099-172000-
   SOUTHEAST IOWA

CITY           SKY/WX    TMP DP  RH WIND       PRES   REMARKS
BURLINGTON     PTSUNNY   48  35  60 VRB7      30.26S
FAIRFIELD *    SUNNY     48  32  53 NW8G18    30.27S
FORT MADISON * SUNNY     48  36  61 NW6       30.27S
KEOKUK *       MOSUNNY   48  36  61 VRB5      30.26S
OSKALOOSA *      N/A     46  32  57 NW8       30.28R
CENTERVILLE *  SUNNY     48  32  53 CALM      30.28S
OTTUMWA        SUNNY     47  33  58 N13       30.27S
WASHINGTON *   SUNNY     50  36  57 NW12      30.26S
$$

ABBREVIATIONS USED IN REMARKS
   TC - TEMPERATURES IN CELSIUS
  WCI - WIND CHILL INDEX
   HX - HEAT INDEX
  VSB - VISIBILITY
$$




USA.gov is the U.S. government's official web portal to all federal, state and local government web resources and services.